Location: Caltech
(34.1382°N, 118.1253°W)
Time: 10:18:58
(UTC-07:00)

Gbstr 26 Del rocket - Visible Passes

Search period start: 20 June 2018 00:00
Search period end: 30 June 2018 00:00
Orbit: 493 x 1265 km, 51.8° (Epoch: 19 June)

Date Brightness Start Highest point End Pass type
(mag) Time Alt. Az. Time Alt. Az. Time Alt. Az.
20 Jun 4.6 04:17:08 12° S 04:19:32 21° SE 04:22:32 10° ENE visible
21 Jun 4.0 04:12:59 18° S 04:14:56 29° SE 04:18:23 10° ENE visible
22 Jun 3.4 04:08:46 26° S 04:10:22 42° SE 04:14:06 10° ENE visible
23 Jun 2.8 04:04:31 36° SSW 04:05:50 61° SE 04:09:43 10° NE visible
24 Jun 2.5 04:00:13 44° SW 04:01:19 88° SE 04:05:15 10° NE visible
25 Jun 2.7 03:55:51 44° WSW 03:56:51 65° NW 04:00:44 10° NE visible
26 Jun 3.2 03:51:28 37° W 03:52:23 46° NW 03:56:10 10° NE visible
27 Jun 3.7 03:47:02 30° WNW 03:47:58 34° NW 03:51:33 10° NNE visible
28 Jun 5.7 02:00:01 10° ENE 02:00:01 10° ENE 02:00:03 10° ENE visible
28 Jun 4.2 03:42:34 23° WNW 03:43:34 26° NNW 03:46:53 10° NNE visible
29 Jun 5.6 01:55:31 12° ENE 01:55:31 12° ENE 01:55:47 10° ENE visible
29 Jun 4.6 03:38:03 18° WNW 03:39:12 21° NNW 03:42:11 10° NNE visible
